[ hide orbit diagram ]
For accurate long-term ephemerides, please instead use our Horizons system.This orbit viewer was implemented using two-body methods, and hence should not be used for determining accurate long-term trajectories (over several years or decades) or planetary encounter circumstances.
Orbital Elements at Epoch 2459000.5 (2020-May-31.0) TDB
Reference: JPL 15 (heliocentric ecliptic J2000)
Element | Value | Uncertainty (1-sigma) | Units |
e | .162582883331178 | 7.2337e-08 | |
a | 3.13423846646887 | 3.4718e-08 | au |
q | 2.624664939542871 | 2.3859e-07 | au |
i | 9.373991669916791 | 7.7999e-06 | deg |
node | 319.1094166057203 | 2.9598e-05 | deg |
peri | 205.1618769863964 | 3.3098e-05 | deg |
M | 195.1810400171975 | 1.8061e-05 | deg |
tp | 2459928.399947372164 (2022-Dec-14.89994737) | 0.00011314 | TDB |
period | 2026.732732015989 5.55 | 3.3675e-05 9.22e-08 | d yr |
n | .1776257886958328 | 2.9514e-09 | deg/d |
Q | 3.643811993394868 | 4.0363e-08 | au |
|
| | Orbit Determination Parameters
Additional Information
|
[ show covariance matrix ]
Physical Parameter Table
Parameter |
Symbol |
Value |
Units |
Sigma |
Reference |
Notes |
absolute magnitude |
H |
15.5 |
|
n/a |
MPO418665 |
|
|
324212 (2006 BY23) Discovered 2006-Jan-23 by CSS at Catalina |
Reference: 20120406/Numbers.arc | Last Updated: 2012-04-09 |
|
[ show close-approach data ]
|